QPF
0.00 0.00 0.00 0.00 0.00 0.00 0.00 0.00 0.00 0.00 0.00 0.00 0.01 0.01 0.01 0.01 0.02 0.06 0.12 0.21 0.25 0.18 0.15 0.22 0.13 0.08 0.08 0.09 0.10 0.08 0.08 0.10 0.11 0.09 0.09 0.10 0.13 0.15 0.16 0.17 0.17 0.16 0.13 0.12
0.00 0.00 0.00 0.00 0.00 0.00 0.00 0.00 0.00 0.00 0.00 0.00 0.01 0.02 0.03 0.03 0.06 0.13 0.24 0.34 0.45 0.41 0.28 0.21 0.12 0.10 0.08 0.09 0.11 0.12 0.14 0.15 0.15 0.15 0.14 0.15 0.18 0.21 0.20 0.17 0.16 0.17 0.16 0.16
0.00 0.00 0.00 0.00 0.00 0.00 0.00 0.00 0.00 0.00 0.01 0.01 0.01 0.03 0.04 0.03 0.05 0.10 0.26 0.34 0.40 0.38 0.33 0.24 0.15 0.13 0.12 0.12 0.12 0.12 0.15 0.18 0.20 0.21 0.21 0.21 0.21 0.22 0.25 0.27 0.25 0.22 0.21 0.21
0.00 0.00 0.00 0.00 0.00 0.00 0.00 0.00 0.00 0.00 0.01 0.02 0.02 0.07 0.06 0.04 0.05 0.05 0.09 0.16 0.22 0.19 0.19 0.19 0.20 0.17 0.15 0.14 0.11 0.11 0.13 0.16 0.19 0.22 0.22 0.22 0.24 0.27 0.30 0.34 0.32 0.31 0.27 0.23
0.00 0.00 0.00 0.00 0.00 0.00 0.00 0.00 0.00 0.00 0.00 0.01 0.01 0.08 0.13 0.08 0.07 0.04 0.03 0.04 0.07 0.10 0.10 0.14 0.11 0.12 0.14 0.14 0.13 0.13 0.14 0.15 0.16 0.17 0.21 0.25 0.30 0.35 0.37 0.36 0.34 0.34 0.29 0.20
0.00 0.00 0.00 0.00 0.00 0.00 0.00 0.00 0.00 0.00 0.00 0.01 0.01 0.06 0.17 0.20 0.12 0.04 0.02 0.02 0.04 0.05 0.04 0.07 0.05 0.04 0.06 0.09 0.09 0.10 0.09 0.09 0.10 0.11 0.14 0.20 0.27 0.29 0.29 0.29 0.28 0.26 0.22 0.18
0.01 0.00 0.00 0.00 0.00 0.00 0.00 0.00 0.00 0.00 0.00 0.01 0.02 0.09 0.20 0.30 0.20 0.05 0.02 0.02 0.02 0.03 0.02 0.02 0.02 0.02 0.02 0.03 0.03 0.04 0.05 0.06 0.08 0.09 0.11 0.15 0.20 0.22 0.23 0.23 0.23 0.23 0.19 0.15
0.04 0.01 0.00 0.00 0.00 0.00 0.00 0.00 0.00 0.00 0.01 0.02 0.05 0.13 0.15 0.20 0.14 0.03 0.01 0.01 0.01 0.01 0.01 0.01 0.01 0.01 0.01 0.01 0.03 0.04 0.04 0.05 0.05 0.06 0.08 0.10 0.13 0.14 0.16 0.18 0.17 0.14 0.12 0.10
0.08 0.04 0.00 0.00 0.00 0.00 0.00 0.00 0.00 0.00 0.01 0.05 0.10 0.14 0.12 0.09 0.05 0.02 0.01 0.01 0.01 0.01 0.01 0.01 0.01 0.01 0.01 0.01 0.02 0.02 0.02 0.02 0.03 0.03 0.05 0.06 0.07 0.09 0.09 0.08 0.08 0.08 0.08 0.07
0.04 0.04 0.01 0.00 0.00 0.00 0.00 0.00 0.00 0.01 0.03 0.08 0.14 0.16 0.16 0.12 0.07 0.03 0.02 0.01 0.01 0.01 0.01 0.01 0.02 0.02 0.01 0.01 0.01 0.01 0.01 0.01 0.01 0.02 0.03 0.03 0.03 0.04 0.04 0.05 0.06 0.07 0.07 0.06
0.02 0.02 0.01 0.00 0.00 0.01 0.00 0.00 0.00 0.00 0.02 0.07 0.17 0.29 0.29 0.23 0.13 0.05 0.03 0.02 0.01 0.01 0.01 0.01 0.01 0.01 0.01 0.01 0.01 0.01 0.01 0.01 0.01 0.01 0.01 0.02 0.02 0.03 0.03 0.04 0.05 0.05 0.05 0.04
0.02 0.04 0.03 0.01 0.00 0.00 0.01 0.01 0.00 0.00 0.01 0.02 0.14 0.36 0.43 0.29 0.11 0.05 0.03 0.03 0.02 0.01 0.01 0.01 0.01 0.01 0.01 0.01 0.01 0.01 0.01 0.01 0.01 0.01 0.01 0.01 0.01 0.01 0.02 0.02 0.02 0.03 0.03 0.03
0.02 0.08 0.08 0.05 0.03 0.01 0.00 0.00 0.00 0.00 0.00 0.01 0.11 0.25 0.37 0.28 0.11 0.05 0.03 0.03 0.02 0.01 0.01 0.01 0.01 0.01 0.01 0.01 0.01 0.01 0.01 0.01 0.01 0.01 0.01 0.01 0.01 0.01 0.01 0.01 0.01 0.02 0.02 0.02
0.01 0.07 0.14 0.16 0.09 0.03 0.01 0.00 0.00 0.00 0.01 0.04 0.12 0.18 0.19 0.15 0.09 0.05 0.04 0.02 0.01 0.01 0.01 0.01 0.01 0.01 0.01 0.01 0.01 0.01 0.01 0.01 0.01 0.01 0.01 0.01 0.01 0.01 0.01 0.01 0.01 0.01 0.01 0.01
0.02 0.07 0.10 0.11 0.08 0.03 0.02 0.00 0.01 0.01 0.02 0.06 0.15 0.16 0.13 0.09 0.07 0.05 0.04 0.03 0.02 0.02 0.02 0.02 0.02 0.01 0.01 0.01 0.01 0.01 0.01 0.01 0.01 0.01 0.01 0.01 0.01 0.01 0.01 0.00 0.00 0.00 0.00 0.00
0.02 0.08 0.05 0.04 0.05 0.05 0.03 0.01 0.01 0.02 0.03 0.08 0.15 0.15 0.12 0.08 0.07 0.06 0.06 0.06 0.06 0.06 0.06 0.05 0.04 0.03 0.03 0.02 0.02 0.02 0.01 0.01 0.01 0.00 0.00 0.01 0.01 0.01 0.01 0.01 0.01 0.01 0.01 0.01
0.00 0.02 0.03 0.03 0.02 0.05 0.07 0.02 0.01 0.02 0.03 0.05 0.09 0.10 0.07 0.05 0.05 0.08 0.12 0.12 0.12 0.12 0.12 0.10 0.08 0.06 0.05 0.04 0.03 0.02 0.02 0.01 0.01 0.01 0.01 0.01 0.01 0.01 0.01 0.00 0.01 0.01 0.01 0.01
0.00 0.01 0.01 0.02 0.03 0.09 0.07 0.01 0.00 0.01 0.02 0.02 0.03 0.04 0.04 0.04 0.05 0.07 0.09 0.10 0.12 0.14 0.15 0.13 0.10 0.07 0.06 0.04 0.03 0.03 0.02 0.01 0.01 0.01 0.01 0.01 0.01 0.01 0.01 0.01 0.02 0.02 0.02 0.02
0.00 0.00 0.01 0.03 0.06 0.10 0.05 0.01 0.01 0.03 0.04 0.03 0.02 0.02 0.03 0.03 0.04 0.07 0.09 0.10 0.12 0.14 0.14 0.13 0.12 0.10 0.07 0.05 0.04 0.03 0.02 0.02 0.02 0.01 0.01 0.01 0.01 0.01 0.01 0.02 0.02 0.02 0.02 0.03
0.00 0.00 0.00 0.01 0.04 0.08 0.06 0.01 0.00 0.03 0.07 0.05 0.02 0.02 0.04 0.06 0.07 0.07 0.07 0.08 0.11 0.13 0.12 0.12 0.10 0.09 0.08 0.06 0.04 0.03 0.02 0.02 0.02 0.01 0.01 0.01 0.01 0.02 0.02 0.02 0.02 0.02 0.03 0.03
0.00 0.00 0.01 0.02 0.04 0.05 0.02 0.00 0.02 0.07 0.10 0.05 0.04 0.04 0.07 0.11 0.09 0.06 0.06 0.07 0.08 0.08 0.08 0.06 0.05 0.04 0.04 0.03 0.03 0.03 0.02 0.01 0.01 0.01 0.01 0.01 0.01 0.02 0.02 0.02 0.03 0.03 0.04 0.04
0.00 0.00 0.00 0.01 0.04 0.04 0.00 0.01 0.03 0.05 0.04 0.03 0.04 0.06 0.07 0.06 0.03 0.03 0.04 0.05 0.06 0.07 0.07 0.06 0.05 0.04 0.03 0.03 0.03 0.03 0.02 0.01 0.01 0.01 0.01 0.01 0.01 0.01 0.01 0.02 0.03 0.03 0.05 0.05
0.00 0.00 0.00 0.01 0.02 0.01 0.00 0.00 0.01 0.02 0.03 0.03 0.03 0.02 0.02 0.01 0.01 0.02 0.03 0.05 0.06 0.06 0.06 0.05 0.04 0.03 0.03 0.03 0.03 0.04 0.03 0.01 0.01 0.01 0.02 0.01 0.01 0.01 0.01 0.02 0.03 0.03 0.04 0.04
0.00 0.00 0.00 0.00 0.00 0.00 0.00 0.01 0.01 0.01 0.02 0.02 0.01 0.01 0.01 0.01 0.01 0.02 0.02 0.03 0.04 0.05 0.05 0.05 0.06 0.05 0.04 0.03 0.02 0.02 0.01 0.01 0.01 0.02 0.02 0.01 0.01 0.01 0.01 0.01 0.01 0.02 0.03 0.02
0.00 0.00 0.00 0.00 0.00 0.00 0.00 0.01 0.01 0.01 0.01 0.01 0.01 0.00 0.00 0.01 0.01 0.01 0.02 0.02 0.03 0.03 0.04 0.04 0.04 0.03 0.02 0.01 0.00 0.00 0.00 0.00 0.01 0.01 0.01 0.00 0.00 0.00 0.01 0.01 0.01 0.01 0.01 0.00
0.00 0.00 0.00 0.00 0.00 0.00 0.00 0.01 0.01 0.00 0.00 0.00 0.00 0.01 0.01 0.01 0.01 0.01 0.01 0.02 0.02 0.02 0.01 0.01 0.01 0.01 0.00 0.00 0.00 0.00 0.00 0.00 0.00 0.01 0.00 0.00 0.00 0.00 0.01 0.02 0.02 0.00 0.00 0.00
MSLP
1008.74 1008.93 1008.91 1008.69 1008.31 1007.81 1007.25 1006.68 1006.16 1005.69 1005.30 1004.98 1004.73 1004.53 1004.38 1004.28 1004.24 1004.24 1004.31 1004.43 1004.61 1004.86 1005.17 1005.55 1006.00 1006.51 1007.08 1007.70 1008.35 1009.00 1009.62 1010.20 1010.72 1011.16 1011.55 1011.90 1012.23 1012.58 1012.96 1013.40 1013.89 1014.42 1014.96 1015.49
1008.77 1008.85 1008.74 1008.45 1008.02 1007.50 1006.96 1006.44 1005.97 1005.58 1005.27 1005.04 1004.88 1004.79 1004.76 1004.81 1004.94 1005.13 1005.39 1005.70 1006.05 1006.43 1006.82 1007.21 1007.61 1008.01 1008.42 1008.85 1009.28 1009.73 1010.16 1010.59 1010.99 1011.36 1011.71 1012.05 1012.41 1012.80 1013.25 1013.76 1014.33 1014.95 1015.58 1016.19
1008.65 1008.63 1008.43 1008.09 1007.65 1007.18 1006.72 1006.31 1005.98 1005.73 1005.56 1005.46 1005.43 1005.46 1005.57 1005.75 1006.02 1006.37 1006.79 1007.26 1007.75 1008.24 1008.68 1009.08 1009.42 1009.70 1009.94 1010.16 1010.38 1010.61 1010.85 1011.12 1011.40 1011.69 1012.01 1012.36 1012.76 1013.22 1013.75 1014.36 1015.02 1015.73 1016.44 1017.11
1008.45 1008.31 1008.02 1007.63 1007.22 1006.82 1006.49 1006.26 1006.12 1006.08 1006.10 1006.17 1006.29 1006.46 1006.68 1006.97 1007.34 1007.80 1008.33 1008.90 1009.49 1010.04 1010.53 1010.92 1011.21 1011.39 1011.50 1011.55 1011.58 1011.62 1011.69 1011.82 1012.00 1012.24 1012.55 1012.92 1013.38 1013.91 1014.52 1015.21 1015.96 1016.73 1017.49 1018.20
1008.25 1007.96 1007.57 1007.14 1006.75 1006.45 1006.28 1006.24 1006.32 1006.50 1006.74 1007.01 1007.29 1007.58 1007.91 1008.27 1008.71 1009.22 1009.80 1010.42 1011.06 1011.65 1012.17 1012.56 1012.82 1012.95 1012.97 1012.92 1012.83 1012.74 1012.70 1012.73 1012.85 1013.06 1013.37 1013.77 1014.28 1014.87 1015.55 1016.30 1017.09 1017.90 1018.67 1019.37
1008.12 1007.68 1007.18 1006.70 1006.32 1006.09 1006.04 1006.18 1006.47 1006.87 1007.32 1007.77 1008.21 1008.63 1009.03 1009.45 1009.91 1010.43 1011.02 1011.65 1012.30 1012.92 1013.47 1013.89 1014.17 1014.30 1014.31 1014.22 1014.09 1013.96 1013.87 1013.86 1013.95 1014.15 1014.47 1014.90 1015.44 1016.07 1016.77 1017.54 1018.33 1019.11 1019.84 1020.49
1008.15 1007.55 1006.93 1006.37 1005.97 1005.77 1005.81 1006.08 1006.53 1007.09 1007.72 1008.33 1008.91 1009.42 1009.89 1010.34 1010.81 1011.32 1011.89 1012.52 1013.17 1013.81 1014.39 1014.87 1015.21 1015.41 1015.48 1015.45 1015.36 1015.25 1015.17 1015.17 1015.26 1015.47 1015.79 1016.23 1016.77 1017.39 1018.08 1018.81 1019.54 1020.25 1020.90 1021.45
1008.34 1007.61 1006.88 1006.24 1005.78 1005.57 1005.63 1005.95 1006.48 1007.15 1007.89 1008.62 1009.30 1009.90 1010.43 1010.91 1011.38 1011.89 1012.44 1013.05 1013.71 1014.38 1015.01 1015.57 1016.01 1016.33 1016.52 1016.60 1016.60 1016.57 1016.56 1016.59 1016.70 1016.91 1017.23 1017.65 1018.15 1018.72 1019.34 1019.99 1020.62 1021.21 1021.74 1022.17
1008.65 1007.85 1007.05 1006.34 1005.81 1005.54 1005.56 1005.86 1006.40 1007.11 1007.89 1008.69 1009.43 1010.10 1010.69 1011.21 1011.70 1012.21 1012.77 1013.38 1014.05 1014.76 1015.45 1016.10 1016.67 1017.12 1017.45 1017.68 1017.81 1017.88 1017.94 1018.02 1018.15 1018.36 1018.64 1019.01 1019.44 1019.93 1020.45 1020.97 1021.47 1021.93 1022.33 1022.64
1009.00 1008.21 1007.39 1006.65 1006.08 1005.74 1005.68 1005.91 1006.39 1007.06 1007.84 1008.66 1009.45 1010.17 1010.82 1011.39 1011.93 1012.48 1013.05 1013.69 1014.38 1015.12 1015.88 1016.61 1017.28 1017.86 1018.33 1018.69 1018.94 1019.11 1019.24 1019.36 1019.49 1019.67 1019.90 1020.19 1020.53 1020.91 1021.31 1021.71 1022.09 1022.42 1022.70 1022.90
1009.30 1008.60 1007.85 1007.14 1006.56 1006.17 1006.03 1006.17 1006.56 1007.16 1007.89 1008.70 1009.51 1010.29 1011.00 1011.65 1012.27 1012.87 1013.49 1014.15 1014.87 1015.63 1016.43 1017.21 1017.96 1018.62 1019.18 1019.63 1019.97 1020.21 1020.38 1020.51 1020.62 1020.76 1020.92 1021.12 1021.36 1021.63 1021.92 1022.21 1022.48 1022.73 1022.92 1023.06
1009.45 1008.94 1008.34 1007.72 1007.19 1006.79 1006.61 1006.66 1006.96 1007.47 1008.15 1008.93 1009.77 1010.59 1011.39 1012.13 1012.83 1013.51 1014.18 1014.88 1015.61 1016.38 1017.18 1017.97 1018.72 1019.41 1020.01 1020.50 1020.88 1021.14 1021.32 1021.43 1021.51 1021.59 1021.68 1021.79 1021.94 1022.12 1022.33 1022.55 1022.75 1022.94 1023.10 1023.22
1009.43 1009.15 1008.76 1008.32 1007.89 1007.55 1007.36 1007.36 1007.59 1008.03 1008.66 1009.43 1010.28 1011.16 1012.04 1012.88 1013.68 1014.43 1015.16 1015.89 1016.62 1017.36 1018.11 1018.86 1019.57 1020.23 1020.80 1021.28 1021.64 1021.89 1022.05 1022.13 1022.17 1022.19 1022.21 1022.26 1022.34 1022.47 1022.62 1022.79 1022.97 1023.15 1023.31 1023.45
1009.24 1009.22 1009.07 1008.84 1008.57 1008.33 1008.19 1008.19 1008.39 1008.79 1009.38 1010.14 1011.01 1011.96 1012.91 1013.85 1014.74 1015.57 1016.35 1017.08 1017.79 1018.48 1019.16 1019.82 1020.44 1021.02 1021.52 1021.94 1022.25 1022.47 1022.59 1022.64 1022.64 1022.62 1022.60 1022.60 1022.65 1022.73 1022.86 1023.03 1023.21 1023.40 1023.59 1023.77
1008.95 1009.17 1009.27 1009.26 1009.18 1009.07 1009.01 1009.05 1009.25 1009.64 1010.22 1010.98 1011.88 1012.87 1013.90 1014.91 1015.88 1016.77 1017.58 1018.32 1018.99 1019.60 1020.19 1020.73 1021.25 1021.72 1022.13 1022.47 1022.73 1022.90 1023.00 1023.02 1023.00 1022.96 1022.92 1022.91 1022.93 1023.00 1023.13 1023.29 1023.49 1023.71 1023.93 1024.15
1008.66 1009.06 1009.37 1009.56 1009.66 1009.70 1009.74 1009.84 1010.07 1010.46 1011.04 1011.81 1012.73 1013.75 1014.83 1015.91 1016.93 1017.86 1018.69 1019.41 1020.04 1020.58 1021.07 1021.50 1021.91 1022.27 1022.60 1022.87 1023.08 1023.23 1023.31 1023.33 1023.31 1023.27 1023.24 1023.22 1023.24 1023.31 1023.44 1023.60 1023.81 1024.04 1024.28 1024.51
1008.44 1008.97 1009.42 1009.77 1010.01 1010.18 1010.32 1010.49 1010.75 1011.16 1011.75 1012.51 1013.44 1014.48 1015.59 1016.69 1017.74 1018.70 1019.53 1020.24 1020.82 1021.30 1021.70 1022.05 1022.36 1022.65 1022.91 1023.14 1023.33 1023.47 1023.56 1023.61 1023.62 1023.60 1023.58 1023.58 1023.60 1023.67 1023.78 1023.93 1024.12 1024.34 1024.57 1024.80
1008.35 1008.92 1009.46 1009.90 1010.25 1010.52 1010.73 1010.96 1011.26 1011.69 1012.27 1013.02 1013.93 1014.97 1016.07 1017.18 1018.24 1019.20 1020.02 1020.71 1021.26 1021.70 1022.05 1022.34 1022.60 1022.84 1023.07 1023.29 1023.48 1023.65 1023.78 1023.87 1023.92 1023.94 1023.95 1023.96 1023.98 1024.03 1024.11 1024.23 1024.39 1024.56 1024.76 1024.95
1008.39 1008.97 1009.52 1010.01 1010.41 1010.74 1011.02 1011.29 1011.61 1012.04 1012.61 1013.34 1014.22 1015.22 1016.30 1017.39 1018.43 1019.37 1020.18 1020.86 1021.39 1021.81 1022.14 1022.41 1022.65 1022.88 1023.12 1023.35 1023.58 1023.80 1023.98 1024.12 1024.22 1024.28 1024.31 1024.32 1024.33 1024.36 1024.41 1024.48 1024.58 1024.70 1024.84 1024.99
1008.53 1009.07 1009.60 1010.10 1010.53 1010.90 1011.21 1011.52 1011.86 1012.28 1012.84 1013.53 1014.37 1015.32 1016.35 1017.39 1018.40 1019.31 1020.11 1020.78 1021.31 1021.72 1022.05 1022.33 1022.58 1022.84 1023.10 1023.37 1023.64 1023.90 1024.14 1024.33 1024.47 1024.56 1024.61 1024.63 1024.63 1024.62 1024.63 1024.65 1024.70 1024.77 1024.86 1024.96
1008.70 1009.19 1009.70 1010.19 1010.64 1011.03 1011.37 1011.70 1012.06 1012.49 1013.02 1013.68 1014.47 1015.37 1016.33 1017.32 1018.28 1019.16 1019.94 1020.59 1021.12 1021.55 1021.90 1022.20 1022.48 1022.76 1023.05 1023.36 1023.68 1023.98 1024.25 1024.48 1024.65 1024.77 1024.83 1024.84 1024.83 1024.80 1024.78 1024.77 1024.78 1024.81 1024.87 1024.95
1008.83 1009.29 1009.79 1010.27 1010.73 1011.15 1011.53 1011.90 1012.28 1012.72 1013.25 1013.89 1014.63 1015.46 1016.36 1017.29 1018.19 1019.03 1019.78 1020.42 1020.96 1021.39 1021.76 1022.09 1022.39 1022.70 1023.02 1023.36 1023.70 1024.02 1024.32 1024.56 1024.75 1024.87 1024.94 1024.95 1024.93 1024.90 1024.86 1024.84 1024.84 1024.88 1024.94 1025.02
1008.89 1009.34 1009.84 1010.34 1010.83 1011.29 1011.72 1012.14 1012.57 1013.04 1013.57 1014.19 1014.90 1015.69 1016.53 1017.39 1018.23 1019.03 1019.74 1020.36 1020.89 1021.33 1021.71 1022.05 1022.38 1022.70 1023.04 1023.38 1023.72 1024.04 1024.33 1024.58 1024.76 1024.89 1024.95 1024.97 1024.95 1024.93 1024.90 1024.90 1024.92 1024.98 1025.07 1025.19
1008.88 1009.34 1009.85 1010.38 1010.92 1011.44 1011.94 1012.43 1012.92 1013.44 1014.00 1014.62 1015.31 1016.05 1016.84 1017.64 1018.43 1019.17 1019.84 1020.43 1020.94 1021.38 1021.77 1022.11 1022.44 1022.76 1023.09 1023.42 1023.74 1024.05 1024.31 1024.54 1024.71 1024.82 1024.88 1024.91 1024.91 1024.90 1024.91 1024.94 1025.01 1025.12 1025.26 1025.43
1008.80 1009.29 1009.83 1010.41 1011.01 1011.60 1012.18 1012.76 1013.32 1013.90 1014.50 1015.14 1015.82 1016.53 1017.28 1018.02 1018.75 1019.44 1020.06 1020.62 1021.11 1021.53 1021.91 1022.24 1022.56 1022.87 1023.17 1023.47 1023.76 1024.03 1024.27 1024.46 1024.60 1024.70 1024.77 1024.80 1024.82 1024.85 1024.90 1024.98 1025.10 1025.27 1025.47 1025.68
1008.71 1009.22 1009.80 1010.44 1011.10 1011.77 1012.44 1013.10 1013.74 1014.39 1015.03 1015.70 1016.37 1017.07 1017.77 1018.47 1019.14 1019.77 1020.35 1020.87 1021.33 1021.74 1022.09 1022.41 1022.71 1022.99 1023.27 1023.53 1023.78 1024.01 1024.20 1024.36 1024.48 1024.56 1024.62 1024.66 1024.70 1024.77 1024.86 1024.99 1025.16 1025.37 1025.61 1025.86
Thickness
5697 5689 5690 5703 5714 5718 5725 5733 5742 5758 5772 5760 5750 5749 5761 5770 5768 5762 5761 5759 5750 5749 5753 5755 5757 5759 5762 5762 5761 5760 5759 5758 5755 5752 5749 5746 5743 5742 5740 5737 5735 5732 5728 5726
5688 5687 5705 5718 5724 5723 5723 5726 5737 5751 5762 5754 5744 5741 5751 5751 5747 5747 5744 5738 5734 5734 5735 5736 5738 5742 5746 5747 5748 5749 5748 5748 5747 5745 5744 5741 5738 5735 5733 5729 5726 5721 5718 5715
5683 5697 5712 5711 5711 5710 5715 5721 5729 5737 5744 5747 5738 5727 5733 5735 5734 5733 5731 5728 5721 5713 5715 5719 5723 5726 5731 5732 5733 5736 5736 5737 5738 5738 5737 5733 5730 5726 5721 5716 5712 5708 5704 5701
5692 5703 5704 5702 5704 5708 5706 5729 5733 5734 5727 5723 5730 5704 5718 5723 5718 5717 5715 5713 5706 5706 5706 5705 5709 5713 5715 5717 5720 5723 5723 5725 5727 5729 5727 5723 5719 5712 5707 5703 5698 5693 5689 5687
5689 5700 5699 5697 5706 5714 5717 5735 5732 5729 5726 5722 5727 5711 5705 5716 5704 5702 5701 5699 5699 5697 5697 5696 5698 5701 5703 5704 5706 5707 5708 5710 5712 5714 5715 5712 5707 5701 5695 5690 5684 5678 5674 5671
5690 5704 5707 5708 5717 5721 5722 5725 5727 5727 5724 5706 5716 5711 5695 5704 5700 5692 5689 5688 5687 5688 5688 5687 5688 5690 5690 5692 5693 5694 5694 5695 5696 5697 5698 5697 5692 5687 5681 5676 5671 5666 5660 5656
5680 5695 5708 5714 5707 5715 5715 5705 5695 5696 5700 5708 5728 5707 5687 5695 5696 5689 5682 5678 5676 5677 5678 5678 5677 5677 5678 5679 5679 5679 5680 5679 5679 5680 5679 5678 5674 5670 5665 5660 5656 5651 5646 5643
5654 5668 5699 5709 5706 5706 5708 5708 5694 5686 5694 5709 5721 5695 5681 5688 5685 5681 5676 5672 5669 5668 5667 5665 5664 5665 5664 5664 5664 5664 5665 5664 5664 5663 5661 5660 5657 5653 5648 5644 5640 5636 5631 5627
5649 5664 5702 5712 5719 5719 5710 5711 5719 5703 5697 5690 5690 5675 5670 5677 5673 5670 5666 5663 5660 5658 5657 5654 5652 5652 5651 5651 5650 5650 5650 5649 5648 5646 5644 5642 5640 5637 5633 5628 5625 5620 5617 5614
5664 5659 5694 5714 5722 5724 5727 5725 5712 5696 5675 5668 5677 5674 5666 5661 5660 5660 5656 5653 5650 5649 5646 5644 5642 5640 5639 5638 5637 5636 5635 5634 5632 5631 5630 5627 5624 5621 5617 5613 5609 5605 5602 5599
5680 5667 5691 5707 5706 5708 5715 5719 5716 5709 5698 5673 5659 5659 5673 5664 5656 5651 5647 5645 5643 5640 5637 5635 5633 5631 5629 5628 5626 5624 5622 5620 5617 5615 5613 5612 5608 5605 5602 5598 5595 5592 5588 5585
5684 5674 5673 5693 5715 5728 5725 5720 5717 5700 5693 5691 5669 5646 5664 5660 5653 5646 5639 5635 5632 5630 5627 5625 5622 5620 5618 5615 5613 5611 5609 5607 5604 5601 5598 5596 5593 5590 5587 5583 5580 5577 5575 5572
5681 5666 5661 5672 5694 5709 5713 5719 5721 5717 5709 5695 5666 5641 5652 5649 5642 5637 5631 5626 5622 5618 5615 5612 5610 5607 5605 5602 5600 5597 5595 5593 5590 5587 5584 5581 5578 5575 5572 5569 5567 5564 5562 5559
5684 5662 5653 5648 5663 5682 5693 5707 5715 5710 5697 5683 5664 5645 5640 5636 5631 5625 5621 5617 5612 5608 5604 5601 5597 5594 5591 5589 5587 5584 5581 5579 5577 5574 5571 5568 5565 5562 5559 5556 5554 5552 5550 5548
5685 5664 5666 5670 5679 5684 5688 5697 5700 5694 5687 5671 5655 5646 5635 5630 5625 5617 5612 5607 5601 5596 5592 5588 5585 5581 5579 5576 5574 5572 5569 5567 5565 5562 5559 5555 5552 5549 5547 5544 5542 5540 5539 5537
5686 5671 5670 5671 5679 5683 5682 5685 5685 5680 5675 5662 5649 5634 5631 5625 5617 5608 5602 5597 5590 5584 5580 5575 5572 5568 5565 5563 5561 5559 5557 5555 5553 5551 5547 5544 5542 5539 5536 5534 5531 5529 5527 5525
5693 5679 5673 5674 5686 5678 5661 5673 5672 5666 5663 5659 5643 5629 5624 5614 5606 5600 5593 5587 5580 5574 5568 5563 5559 5556 5553 5550 5549 5548 5546 5544 5543 5540 5537 5534 5532 5530 5528 5526 5522 5519 5517 5514
5687 5682 5679 5676 5675 5648 5658 5678 5672 5659 5651 5647 5635 5624 5616 5606 5597 5591 5586 5579 5571 5565 5558 5553 5549 5545 5543 5541 5539 5538 5537 5534 5532 5530 5528 5525 5523 5521 5518 5515 5512 5510 5507 5504
5694 5682 5676 5671 5660 5649 5659 5668 5667 5652 5636 5636 5625 5615 5606 5598 5588 5578 5574 5570 5563 5556 5550 5544 5540 5537 5534 5532 5530 5529 5528 5525 5524 5521 5519 5517 5515 5512 5510 5507 5504 5501 5498 5496
5695 5690 5679 5673 5656 5641 5648 5665 5668 5652 5624 5628 5621 5610 5603 5596 5584 5570 5565 5560 5554 5547 5542 5537 5533 5529 5526 5524 5523 5521 5519 5517 5515 5513 5511 5508 5506 5503 5501 5499 5496 5494 5491 5489
5683 5682 5676 5669 5657 5646 5656 5664 5661 5630 5618 5624 5618 5609 5601 5593 5584 5569 5560 5553 5546 5540 5534 5530 5526 5522 5520 5517 5516 5514 5511 5509 5508 5506 5503 5500 5498 5497 5495 5492 5489 5487 5485 5482
5681 5677 5674 5669 5651 5635 5655 5657 5639 5626 5628 5622 5612 5602 5593 5583 5572 5562 5554 5547 5540 5534 5529 5525 5521 5517 5514 5512 5510 5506 5504 5503 5501 5498 5496 5494 5492 5491 5489 5486 5484 5482 5480 5478
5682 5673 5670 5657 5643 5644 5648 5643 5638 5633 5623 5614 5604 5595 5585 5575 5565 5557 5549 5541 5535 5530 5525 5520 5516 5512 5509 5507 5504 5501 5498 5497 5494 5492 5489 5488 5486 5485 5483 5482 5480 5478 5476 5473
5681 5683 5669 5653 5645 5645 5643 5638 5634 5627 5618 5609 5599 5590 5580 5569 5560 5551 5544 5537 5532 5526 5520 5516 5512 5507 5503 5501 5498 5495 5493 5490 5488 5486 5484 5483 5482 5480 5478 5476 5475 5472 5469 5466
5683 5679 5667 5651 5645 5642 5637 5633 5627 5620 5612 5602 5593 5584 5574 5564 5555 5547 5540 5534 5528 5523 5517 5512 5507 5503 5499 5496 5493 5491 5488 5485 5483 5481 5480 5479 5478 5476 5474 5470 5465 5464 5458 5456
5689 5681 5669 5657 5652 5645 5633 5630 5624 5614 5605 5597 5587 5577 5568 5561 5552 5544 5537 5531 5525 5519 5514 5508 5503 5499 5495 5492 5489 5486 5483 5481 5479 5477 5476 5476 5475 5473 5472 5468 5463 5456 5455 5451